Wetbulb
65.12 66.16 63.39 58.41 50.52 51.57 49.12 49.12 55.08 51.74 51.27 55.37 55.37 57.45 57.46 58.32 55.97 53.28 65.22 66.48 66.79 67.40 67.62 67.49 67.29 66.02 65.20 64.32 64.00 63.90 63.79 63.71 63.65 63.64 63.51 63.67 64.20 64.48 65.06 65.36 65.46 65.20 64.78 64.56 64.90 64.83 64.12 63.66 64.01
63.65 64.66 60.38 56.37 46.57 46.96 48.48 51.40 51.89 53.29 56.76 57.33 59.38 59.09 58.18 56.26 60.61 60.90 62.93 66.62 67.59 66.46 66.93 67.01 66.25 65.51 64.79 63.96 63.61 63.58 63.24 63.11 63.13 63.00 63.12 63.40 63.74 64.20 64.58 64.84 65.40 64.97 65.47 65.37 65.14 64.36 63.85 63.88 64.61
64.53 64.01 56.26 50.99 48.26 47.02 48.19 51.80 54.28 57.17 58.17 57.98 58.49 61.76 59.41 57.43 61.79 62.69 65.83 66.02 66.84 66.44 67.06 65.92 65.91 64.97 64.17 63.59 63.30 62.99 62.54 62.55 62.60 62.32 62.71 63.13 64.08 64.28 64.39 64.11 64.92 65.19 65.18 65.03 64.52 64.00 63.62 64.23 64.97
62.18 62.55 56.43 46.77 46.34 48.97 50.68 54.10 57.18 55.56 58.09 59.73 60.15 57.19 61.44 63.70 62.84 65.21 66.38 67.18 66.30 66.33 66.80 65.49 65.45 64.34 63.71 63.11 62.65 62.31 61.93 62.03 62.40 62.22 62.68 63.00 63.15 63.32 64.09 63.95 64.25 64.38 64.36 64.71 63.74 63.51 63.82 64.27 64.31
62.54 60.06 52.21 47.29 46.46 49.23 53.44 57.72 57.66 55.69 56.78 58.38 59.43 56.59 58.01 63.18 65.52 66.24 66.41 66.48 66.07 66.71 66.29 65.54 64.80 63.75 63.17 62.30 61.96 61.97 61.90 61.69 61.79 61.18 61.12 61.36 61.66 62.84 63.36 64.07 63.88 63.82 63.67 63.58 63.30 63.40 63.52 63.37 63.06
56.55 57.54 50.63 47.39 46.65 49.86 56.36 57.98 57.74 57.49 57.92 57.68 58.32 57.95 58.61 64.89 64.55 65.38 66.01 65.83 66.47 65.99 65.92 64.21 61.67 62.65 61.56 61.19 61.14 61.23 61.26 60.94 60.81 60.85 60.68 60.77 61.02 61.71 62.13 63.27 63.48 63.09 63.00 62.83 63.09 62.95 62.95 62.16 61.19
55.06 53.76 50.55 51.44 48.78 49.79 54.74 58.23 56.75 57.59 57.67 57.61 60.29 56.42 59.27 62.36 64.64 65.89 65.63 65.82 66.20 66.02 64.79 63.74 62.03 60.16 60.34 60.47 60.38 60.19 60.19 59.69 59.42 58.99 58.80 58.52 58.53 59.31 59.78 60.44 63.12 62.38 62.42 62.46 62.56 62.11 61.72 60.29 58.86
56.03 53.58 48.20 50.67 48.61 49.12 55.36 56.18 58.17 58.58 57.63 61.02 61.64 56.56 55.72 61.29 65.29 65.85 65.45 65.38 65.41 64.74 62.92 61.29 61.99 62.21 61.36 59.57 58.95 59.32 58.72 57.93 57.28 56.74 56.18 55.79 56.66 56.83 57.21 59.74 61.02 61.73 61.68 61.75 62.16 61.16 59.67 58.25 57.12
54.82 49.80 47.91 49.07 50.09 50.27 54.71 54.05 56.97 58.93 58.17 59.28 59.89 60.98 62.12 62.94 63.96 63.80 63.24 63.16 63.08 61.55 60.09 59.81 61.36 61.60 60.93 59.90 57.06 57.46 56.64 56.31 56.01 56.29 55.38 56.78 58.71 58.56 58.28 55.96 57.97 61.11 60.83 60.95 60.89 59.44 57.75 56.24 55.23
51.36 51.41 51.18 49.84 51.36 50.11 54.16 55.56 55.73 56.18 56.90 56.94 57.94 60.47 62.91 62.22 62.30 61.42 61.02 60.73 61.28 59.18 57.62 58.38 61.12 61.12 60.44 58.89 59.54 59.20 58.31 58.51 58.22 58.21 57.80 57.83 57.83 57.09 56.89 55.30 55.77 58.56 60.53 59.94 59.04 57.92 56.45 57.72 56.10
51.64 51.16 49.17 46.92 48.66 53.89 53.97 54.64 56.92 55.79 54.15 57.30 57.43 58.17 59.99 61.18 61.15 61.33 61.48 61.56 61.46 60.33 57.06 57.97 60.84 61.25 60.75 59.57 59.99 59.72 59.15 58.76 58.61 58.10 57.71 57.55 57.69 57.98 58.28 58.71 59.13 60.20 58.03 58.62 58.34 57.88 57.34 56.14 55.14
44.54 48.77 48.59 48.26 50.47 52.82 52.56 55.70 54.17 56.10 54.13 57.29 59.68 60.21 59.73 59.46 59.77 60.92 61.40 61.69 61.88 58.77 57.02 58.07 61.01 60.88 60.73 60.56 60.13 59.42 58.88 58.54 58.11 57.89 57.54 57.61 57.41 57.31 57.42 58.11 58.65 59.54 58.92 58.57 57.75 56.27 54.30 52.09 50.82
44.23 46.65 47.86 48.73 50.19 52.85 53.71 52.52 53.15 54.29 54.90 57.51 60.31 59.58 58.66 59.20 59.57 62.59 62.81 62.77 61.74 58.75 58.56 59.07 60.88 60.69 60.46 59.72 59.93 59.20 58.60 58.34 57.88 58.24 57.75 57.65 57.30 57.00 57.35 57.97 57.92 58.15 59.23 58.82 56.06 54.93 52.45 50.71 49.43
46.65 46.21 47.63 48.85 49.08 49.51 51.17 50.52 51.92 52.35 56.59 57.50 59.10 58.53 59.72 59.65 59.88 61.47 61.92 61.81 62.03 61.27 60.30 60.31 60.39 60.74 60.24 59.65 59.42 59.00 58.49 58.03 58.46 58.35 57.58 57.32 57.43 57.32 56.98 57.00 57.04 58.07 58.83 58.44 56.27 55.00 52.12 50.26 48.36
45.50 42.34 46.05 47.18 47.37 46.54 49.35 46.53 48.07 52.69 56.21 56.33 56.46 57.92 58.29 59.79 61.06 60.77 61.88 61.95 62.46 62.51 61.32 59.96 59.20 60.24 59.77 59.48 59.38 59.14 58.71 57.92 58.01 57.78 57.14 56.70 56.72 56.75 56.60 56.49 56.22 56.70 56.89 56.50 56.21 53.79 48.38 44.48 42.94
44.33 44.70 42.10 46.22 47.18 46.44 47.64 45.93 47.74 51.66 54.78 54.64 55.75 57.71 58.42 59.62 59.87 61.08 61.92 62.48 63.21 63.45 60.38 58.14 57.01 57.56 58.90 59.08 59.34 59.02 58.62 58.24 58.18 57.72 57.16 56.01 55.87 55.90 55.97 55.79 55.83 56.31 56.17 55.60 55.08 49.92 45.04 42.34 40.74
44.54 41.70 44.42 43.04 47.27 46.92 47.81 47.97 48.20 49.99 51.92 52.93 55.21 56.52 57.42 58.54 59.72 60.19 60.75 61.55 62.58 62.80 61.43 57.35 57.07 56.27 56.96 56.92 56.75 57.15 56.73 56.83 57.13 57.19 56.53 55.53 55.04 54.94 55.01 55.28 55.43 55.89 55.80 54.95 54.40 49.54 45.29 40.89 39.47
41.24 44.09 46.33 44.67 45.89 46.77 46.18 47.69 48.50 49.69 50.14 51.13 52.69 54.37 55.58 56.82 58.04 60.61 61.22 62.27 62.32 62.37 62.27 60.66 58.62 57.23 56.14 55.40 55.99 55.87 55.73 55.29 55.31 55.35 54.86 54.90 54.74 54.25 54.12 54.49 54.63 54.77 54.61 54.64 53.88 49.16 44.01 41.34 39.28
46.60 46.22 45.21 45.60 46.23 46.34 47.46 46.77 48.64 51.43 50.49 50.16 52.12 52.78 53.22 53.98 56.94 58.80 60.36 61.46 60.60 60.98 61.71 61.25 59.43 58.90 57.38 55.96 55.33 53.94 52.85 53.33 52.73 53.33 54.13 54.11 54.09 53.75 53.60 53.54 53.55 53.74 53.16 54.07 54.01 45.31 41.04 39.61 38.37
45.89 43.38 42.07 43.76 44.32 45.36 44.34 42.81 44.34 46.13 47.02 48.20 48.62 50.18 51.42 52.43 53.74 55.14 56.32 58.01 59.33 59.63 59.91 60.39 60.21 59.79 58.54 57.58 56.90 57.18 56.55 55.01 53.47 53.42 52.78 53.36 53.04 53.15 53.05 53.05 52.63 52.90 52.31 52.51 51.99 45.08 41.16 40.02 38.18
40.97 43.53 42.22 42.14 42.02 43.03 41.45 39.74 42.74 45.40 46.82 47.80 48.84 49.59 49.84 49.67 49.92 51.38 52.49 54.13 55.82 56.89 58.21 58.73 59.12 59.42 59.35 58.48 57.87 56.87 55.54 53.88 52.26 52.40 52.32 52.08 50.67 50.48 50.93 50.87 51.66 51.86 51.75 50.86 51.20 45.97 43.26 41.10 38.24
39.33 44.45 43.28 40.81 39.25 36.55 41.03 33.67 40.18 43.50 43.92 44.89 45.52 46.78 47.17 47.51 48.55 49.90 50.62 51.36 52.66 53.78 55.78 56.86 57.51 57.59 58.23 58.18 56.69 55.47 54.10 53.15 54.50 54.64 55.16 52.21 49.19 48.01 48.26 48.72 49.71 50.64 50.97 50.29 51.05 50.01 45.98 46.05 39.51
39.04 43.61 41.86 41.10 39.29 38.44 37.09 37.91 38.52 42.99 40.31 41.55 44.16 45.74 46.81 47.73 48.77 49.26 49.96 50.88 52.02 52.75 53.14 54.20 54.70 55.34 56.13 56.60 56.46 55.41 53.91 54.62 54.86 54.60 53.69 51.04 48.30 46.94 46.39 46.97 47.96 48.75 49.89 49.95 50.02 50.18 48.33 47.60 44.69
43.84 41.25 40.21 40.00 38.43 33.52 34.21 35.63 36.97 39.13 39.37 41.46 43.58 44.79 46.21 48.17 49.56 50.23 51.01 51.61 51.51 52.37 52.26 52.46 52.41 52.85 54.17 54.84 55.13 54.87 54.61 54.07 52.72 52.58 52.58 51.39 49.50 47.46 45.73 45.69 46.65 48.19 48.97 48.64 48.72 48.66 48.94 48.03 46.98
41.53 38.22 31.94 31.05 31.94 29.77 34.14 34.02 36.38 39.98 42.67 42.69 42.59 44.15 46.06 47.24 47.43 47.87 48.70 49.94 51.21 51.38 51.59 51.50 51.05 51.28 52.83 53.21 53.33 53.71 54.25 53.87 52.90 52.38 52.12 52.04 50.90 47.98 46.30 44.68 44.57 45.75 47.89 48.04 47.84 47.26 46.80 46.85 46.99
38.39 37.37 32.30 25.78 27.25 30.40 33.55 30.89 34.55 40.93 43.32 43.24 43.72 44.97 45.75 45.65 46.49 46.87 47.61 48.39 49.33 50.26 51.18 51.18 50.81 50.73 51.57 52.03 52.17 53.13 53.52 53.79 52.38 52.05 51.80 51.76 51.66 50.95 48.66 44.48 43.92 44.68 46.09 47.08 46.42 45.02 44.78 45.08 45.00
37.34 35.05 38.34 31.91 30.03 29.59 32.44 34.87 38.32 40.40 40.13 41.84 42.74 43.68 43.94 44.52 45.24 45.84 46.96 47.52 47.64 48.21 48.91 49.53 49.18 49.28 50.12 50.74 51.22 51.48 52.35 52.42 52.30 52.43 51.79 51.19 51.83 51.01 49.52 46.83 44.13 43.55 44.54 45.13 44.00 43.53 42.53 42.50 42.17
38.44 40.23 32.96 34.15 25.67 23.67 29.09 30.76 33.97 35.73 38.13 40.96 41.67 42.29 43.37 44.64 44.74 45.24 45.74 46.11 46.80 47.29 47.71 48.11 48.09 47.58 48.13 48.66 49.12 49.39 50.12 50.99 51.60 51.65 51.14 50.70 50.66 50.70 49.96 47.43 44.53 43.35 43.13 43.21 42.26 41.22 41.43 40.13 39.44
35.55 34.08 34.34 35.41 32.55 26.10 24.80 29.83 40.33 38.89 40.69 40.69 41.22 41.89 43.57 43.85 44.09 44.27 44.78 45.51 45.55 45.19 44.80 45.09 45.51 45.51 45.62 46.07 46.55 47.22 48.03 48.92 49.34 49.47 49.82 49.97 49.95 49.65 48.90 48.13 45.60 42.99 41.61 41.38 40.21 39.22 38.75 37.71 36.85
36.89 37.09 37.06 30.61 27.59 31.58 29.94 30.67 40.38 42.58 42.47 41.11 41.59 42.94 44.09 43.61 43.55 44.02 44.40 43.90 42.52 41.48 41.89 42.08 43.03 43.60 44.23 44.35 44.35 44.58 45.50 46.23 46.50 47.22 48.05 48.80 48.33 48.70 48.26 47.73 45.95 43.08 41.26 40.60 38.93 37.78 37.35 36.49 34.88
MSLP
1012.35 1011.35 1011.43 1010.96 1010.39 1008.94 1007.92 1008.21 1008.28 1008.84 1009.19 1009.82 1009.87 1010.04 1010.61 1012.04 1012.30 1013.86 1014.77 1015.02 1015.51 1016.55 1017.53 1018.15 1018.57 1018.68 1018.71 1018.91 1019.00 1019.08 1019.08 1019.07 1019.02 1018.95 1018.80 1018.68 1018.61 1018.50 1018.32 1018.12 1017.86 1017.69 1017.58 1017.56 1017.44 1017.40 1017.40 1017.28 1017.08
1012.32 1011.34 1011.32 1009.78 1009.55 1008.20 1007.59 1008.32 1008.63 1009.24 1010.08 1010.55 1010.94 1011.14 1011.38 1013.03 1014.22 1014.97 1015.08 1015.47 1015.72 1016.97 1017.38 1018.16 1018.85 1019.00 1019.08 1019.23 1019.28 1019.26 1019.29 1019.31 1019.27 1019.22 1019.11 1019.00 1018.85 1018.75 1018.59 1018.45 1018.22 1017.98 1017.81 1017.83 1017.78 1017.79 1017.74 1017.52 1017.28
1011.89 1011.47 1010.46 1009.27 1008.62 1007.71 1007.20 1008.23 1008.99 1010.35 1010.84 1010.89 1011.41 1011.56 1012.33 1013.97 1014.69 1014.86 1015.30 1015.84 1016.57 1016.99 1017.49 1018.78 1019.13 1019.23 1019.32 1019.45 1019.49 1019.50 1019.52 1019.53 1019.50 1019.50 1019.36 1019.21 1019.13 1019.02 1018.85 1018.66 1018.51 1018.34 1018.24 1018.15 1018.18 1018.17 1018.03 1017.85 1017.60
1011.87 1010.53 1010.09 1009.43 1008.27 1008.44 1008.16 1008.40 1009.98 1010.95 1011.59 1011.66 1011.47 1012.45 1013.76 1014.41 1014.40 1015.13 1016.05 1016.18 1016.70 1017.14 1018.03 1019.13 1019.33 1019.41 1019.50 1019.62 1019.69 1019.71 1019.76 1019.75 1019.74 1019.71 1019.67 1019.55 1019.46 1019.34 1019.19 1019.00 1018.88 1018.72 1018.58 1018.55 1018.57 1018.60 1018.47 1018.29 1018.15
1011.54 1010.39 1009.15 1008.88 1008.45 1009.00 1009.14 1009.19 1010.29 1010.88 1011.52 1011.89 1012.03 1012.94 1014.12 1014.99 1015.15 1015.68 1016.25 1016.36 1016.80 1017.45 1018.41 1019.10 1019.56 1019.65 1019.79 1019.86 1019.92 1019.94 1020.00 1020.04 1020.09 1020.12 1020.14 1020.10 1019.93 1019.80 1019.65 1019.38 1019.16 1019.12 1019.12 1019.05 1019.01 1019.01 1018.99 1018.96 1018.98
1011.52 1010.51 1009.07 1008.65 1009.02 1009.75 1009.57 1010.12 1010.17 1010.76 1011.70 1012.49 1012.50 1013.44 1014.78 1015.42 1015.62 1016.10 1016.36 1016.70 1017.04 1017.78 1018.60 1019.32 1019.91 1020.04 1020.14 1020.18 1020.26 1020.32 1020.38 1020.45 1020.48 1020.47 1020.51 1020.49 1020.48 1020.28 1020.09 1019.98 1019.73 1019.43 1019.42 1019.53 1019.50 1019.49 1019.50 1019.70 1019.64
1012.03 1010.75 1009.25 1008.64 1009.12 1009.97 1010.23 1010.69 1010.62 1010.99 1011.72 1012.33 1012.78 1013.53 1015.37 1015.76 1015.84 1016.30 1016.62 1016.98 1017.30 1018.13 1018.80 1019.30 1019.73 1020.33 1020.48 1020.59 1020.67 1020.74 1020.82 1020.92 1020.95 1020.99 1020.98 1020.99 1020.95 1020.78 1020.58 1020.36 1020.13 1019.98 1019.85 1019.83 1019.95 1020.04 1020.18 1020.33 1020.27
1012.92 1011.60 1010.05 1009.16 1009.26 1009.75 1010.72 1011.15 1011.21 1011.39 1012.13 1013.22 1013.19 1013.34 1015.28 1016.28 1016.38 1016.63 1016.89 1017.30 1017.86 1018.55 1019.30 1019.67 1019.56 1019.74 1020.00 1020.56 1021.12 1021.15 1021.21 1021.29 1021.35 1021.39 1021.39 1021.34 1021.22 1021.04 1021.06 1020.68 1020.64 1020.37 1020.30 1020.35 1020.32 1020.58 1020.85 1020.92 1020.80
1013.80 1012.15 1010.28 1009.72 1009.41 1009.92 1011.24 1011.70 1012.56 1012.92 1012.85 1013.31 1013.96 1013.77 1014.61 1016.45 1017.18 1017.04 1017.40 1017.98 1018.50 1019.15 1019.62 1019.75 1019.68 1019.85 1020.12 1020.46 1021.16 1021.34 1021.49 1021.41 1021.42 1021.43 1021.41 1021.24 1020.84 1020.81 1020.79 1021.32 1021.19 1020.90 1020.73 1020.74 1020.78 1020.98 1021.20 1021.17 1021.14
1013.93 1012.13 1010.52 1010.61 1010.14 1010.56 1011.37 1011.55 1012.56 1012.90 1013.10 1013.67 1014.48 1015.40 1015.65 1016.89 1017.14 1017.23 1017.51 1017.84 1018.36 1019.20 1019.63 1019.84 1019.62 1019.87 1020.22 1020.38 1020.71 1020.90 1021.11 1021.10 1021.20 1021.23 1021.22 1021.09 1021.11 1021.22 1021.12 1021.44 1021.46 1021.33 1021.12 1021.12 1021.18 1021.41 1021.33 1021.13 1021.09
1014.37 1012.58 1011.76 1011.80 1011.66 1011.08 1011.55 1011.97 1012.71 1012.57 1013.17 1013.22 1014.00 1015.65 1016.27 1016.89 1017.08 1017.12 1017.41 1017.54 1017.99 1018.77 1019.51 1019.73 1019.58 1019.85 1020.15 1020.50 1020.68 1020.81 1021.09 1021.22 1021.34 1021.39 1021.47 1021.42 1021.18 1021.02 1020.84 1020.85 1020.94 1021.06 1021.35 1021.25 1021.43 1021.24 1021.18 1021.49 1021.55
1015.05 1013.66 1012.80 1012.70 1012.54 1012.07 1012.20 1012.56 1012.99 1013.02 1013.87 1014.30 1014.28 1015.64 1016.49 1016.83 1017.08 1016.69 1016.87 1017.33 1017.89 1018.68 1019.24 1019.55 1019.41 1019.80 1020.14 1020.33 1020.50 1020.79 1021.06 1021.31 1021.37 1021.57 1021.53 1021.35 1021.28 1021.26 1021.04 1020.68 1020.91 1021.01 1021.13 1021.27 1021.47 1021.78 1022.14 1022.25 1022.34
1015.30 1014.27 1013.81 1013.53 1013.16 1012.82 1013.00 1013.07 1013.24 1013.72 1014.42 1014.84 1014.90 1016.03 1016.49 1016.85 1017.13 1016.47 1016.66 1017.30 1018.06 1018.52 1018.94 1019.14 1019.29 1019.67 1020.13 1020.39 1020.61 1020.83 1020.99 1021.22 1021.55 1021.61 1021.65 1021.52 1021.35 1021.32 1021.34 1020.89 1020.90 1021.21 1021.33 1021.56 1021.76 1022.11 1022.38 1022.62 1022.76
1015.80 1015.06 1014.43 1013.98 1013.75 1013.68 1013.14 1013.70 1013.84 1014.39 1014.82 1014.87 1015.30 1015.90 1016.22 1016.69 1017.05 1016.83 1016.69 1017.18 1017.66 1018.22 1018.67 1018.87 1019.12 1019.45 1019.95 1020.15 1020.45 1020.68 1020.84 1020.99 1021.26 1021.54 1021.79 1021.83 1021.71 1021.41 1021.46 1021.13 1020.82 1021.14 1021.50 1021.70 1021.81 1022.09 1022.62 1022.65 1022.90
1016.03 1015.90 1015.16 1014.31 1014.07 1013.86 1013.65 1013.91 1013.83 1014.51 1014.90 1015.01 1015.59 1015.84 1016.13 1016.19 1016.48 1016.74 1016.99 1017.10 1017.31 1017.88 1018.66 1018.86 1019.17 1019.32 1019.57 1019.71 1020.05 1020.37 1020.68 1020.87 1020.96 1021.12 1021.54 1021.80 1021.80 1021.65 1021.87 1021.26 1020.99 1021.24 1021.70 1022.00 1022.13 1022.57 1023.34 1023.94 1023.99
1016.92 1015.87 1014.65 1014.33 1014.09 1014.29 1014.09 1013.05 1013.97 1014.67 1014.78 1014.95 1015.26 1015.21 1015.62 1015.87 1016.29 1016.52 1016.73 1017.04 1017.20 1017.67 1018.79 1019.30 1019.57 1019.71 1019.63 1019.67 1019.94 1020.16 1020.43 1020.53 1020.74 1021.05 1021.14 1021.74 1021.80 1021.85 1021.69 1021.41 1020.92 1021.12 1021.81 1022.23 1022.51 1022.93 1023.48 1024.00 1024.22
1015.84 1014.94 1014.22 1014.55 1014.47 1014.13 1014.03 1013.31 1014.32 1014.83 1014.94 1014.70 1014.82 1014.91 1015.03 1015.47 1016.02 1016.48 1017.02 1017.28 1017.56 1017.88 1018.57 1019.07 1019.38 1019.74 1020.01 1020.19 1020.53 1020.50 1020.82 1020.80 1020.89 1021.05 1021.05 1021.40 1021.52 1021.74 1021.73 1021.60 1021.24 1021.09 1021.19 1021.90 1022.29 1022.84 1023.28 1023.82 1024.32
1014.58 1013.65 1013.60 1014.07 1014.77 1014.37 1014.11 1013.89 1014.24 1014.77 1014.92 1014.77 1014.61 1014.70 1014.87 1015.29 1015.58 1015.76 1016.47 1016.91 1017.19 1017.68 1018.11 1018.50 1019.08 1019.51 1019.90 1020.26 1020.40 1020.78 1020.89 1020.99 1021.19 1021.13 1021.05 1021.29 1021.40 1021.63 1021.66 1021.50 1021.46 1021.21 1021.03 1021.43 1022.10 1022.76 1023.28 1023.76 1024.06
1013.74 1013.66 1013.69 1014.48 1015.01 1014.73 1014.31 1014.33 1014.61 1014.54 1014.82 1014.89 1014.63 1014.66 1014.78 1014.93 1015.17 1015.51 1015.87 1016.50 1017.09 1017.42 1017.74 1018.00 1018.57 1019.03 1019.59 1020.04 1020.20 1020.53 1020.70 1021.01 1021.30 1021.29 1021.11 1021.10 1021.04 1021.35 1021.33 1021.33 1021.27 1021.05 1020.96 1020.96 1021.62 1022.79 1023.40 1023.96 1024.40
1013.94 1013.77 1014.48 1015.13 1015.28 1015.05 1014.93 1015.18 1015.71 1015.55 1015.47 1015.42 1015.21 1015.11 1015.20 1015.30 1015.46 1015.84 1016.33 1016.64 1017.00 1017.18 1017.45 1017.87 1018.14 1018.62 1019.15 1019.63 1019.93 1019.84 1020.07 1020.58 1021.02 1020.95 1020.92 1020.95 1020.95 1020.92 1020.96 1020.91 1020.87 1020.84 1020.83 1020.96 1021.63 1022.31 1023.25 1023.79 1024.13
1014.72 1014.10 1014.46 1014.67 1015.36 1015.79 1015.80 1016.07 1015.91 1016.28 1016.06 1016.15 1016.05 1016.22 1016.39 1016.42 1016.56 1016.73 1016.80 1016.77 1016.96 1017.13 1017.47 1017.82 1018.22 1018.49 1018.88 1019.35 1019.57 1019.77 1020.25 1020.64 1020.84 1020.71 1020.64 1020.57 1020.74 1020.81 1020.89 1020.87 1020.66 1020.46 1020.45 1020.50 1020.65 1021.48 1022.06 1022.74 1023.28
1014.58 1014.46 1014.47 1014.86 1015.41 1015.79 1016.27 1016.49 1016.53 1016.44 1016.48 1016.71 1016.86 1016.81 1016.94 1017.09 1017.44 1017.60 1017.47 1017.61 1017.75 1017.63 1017.78 1018.03 1018.29 1018.51 1018.73 1019.18 1019.33 1019.42 1019.75 1019.67 1019.39 1019.40 1019.40 1019.90 1020.41 1020.36 1020.51 1020.49 1020.26 1019.93 1019.80 1019.99 1020.08 1020.34 1020.92 1021.65 1022.46
1015.12 1014.99 1014.99 1015.07 1015.31 1015.64 1016.38 1016.28 1016.79 1016.70 1017.03 1017.44 1017.44 1017.45 1017.73 1017.88 1017.97 1018.01 1018.06 1018.31 1018.37 1018.06 1018.41 1018.50 1018.54 1018.67 1018.89 1019.06 1019.11 1019.09 1019.11 1019.13 1019.00 1019.12 1019.12 1019.66 1019.92 1019.92 1020.06 1020.11 1019.93 1019.56 1019.29 1019.24 1019.44 1019.68 1019.92 1020.36 1020.74
1015.49 1015.46 1015.58 1015.83 1015.84 1016.23 1017.03 1016.85 1017.04 1017.03 1017.87 1017.93 1018.24 1018.36 1018.42 1018.41 1018.32 1018.29 1018.41 1018.41 1018.32 1018.42 1018.68 1018.72 1018.68 1018.61 1018.62 1018.75 1018.93 1018.94 1018.86 1018.83 1018.79 1018.80 1018.80 1019.26 1019.49 1019.42 1019.72 1019.74 1019.62 1019.27 1019.06 1018.88 1018.92 1018.97 1019.16 1019.64 1019.77
1015.88 1015.60 1015.97 1016.32 1016.36 1017.09 1017.64 1017.15 1017.51 1017.94 1017.97 1018.33 1018.67 1018.67 1018.75 1018.60 1018.51 1018.41 1018.53 1018.52 1018.59 1018.69 1018.91 1018.91 1018.83 1018.70 1018.54 1018.52 1018.48 1018.45 1018.26 1018.29 1018.36 1018.27 1018.21 1018.29 1018.37 1018.71 1018.97 1019.27 1019.34 1019.10 1018.93 1018.82 1018.78 1018.93 1018.86 1018.94 1018.98
1016.71 1016.45 1015.98 1016.29 1016.87 1017.31 1017.91 1017.37 1018.07 1018.49 1018.70 1018.99 1018.93 1018.86 1018.75 1018.85 1018.47 1018.50 1018.68 1018.65 1018.53 1018.56 1018.69 1018.75 1018.75 1018.84 1018.83 1018.84 1018.79 1018.68 1018.35 1018.16 1018.22 1018.22 1018.13 1017.82 1017.75 1017.81 1018.13 1018.33 1018.30 1018.30 1018.24 1018.20 1018.31 1018.51 1018.65 1018.61 1018.53
1017.44 1017.20 1017.50 1017.27 1018.32 1017.73 1017.38 1017.84 1018.45 1018.74 1019.07 1018.97 1018.89 1019.11 1019.08 1018.92 1018.56 1018.63 1018.59 1018.89 1019.02 1019.02 1018.98 1018.95 1018.97 1018.89 1018.82 1018.92 1018.81 1018.58 1018.36 1018.32 1018.06 1017.90 1017.89 1017.66 1017.50 1017.43 1017.63 1017.78 1017.88 1017.92 1017.85 1017.77 1018.14 1018.29 1018.28 1018.59 1018.91
1018.29 1018.25 1018.20 1017.80 1017.86 1017.54 1017.38 1017.09 1016.67 1017.87 1018.19 1018.47 1018.58 1018.86 1018.86 1018.74 1018.83 1019.04 1019.16 1019.24 1019.22 1019.27 1019.26 1019.12 1018.98 1018.97 1019.02 1019.02 1018.86 1018.57 1018.34 1018.06 1017.86 1017.66 1017.37 1017.33 1017.19 1017.13 1016.99 1017.13 1017.33 1017.23 1017.39 1017.49 1017.79 1018.00 1018.11 1018.30 1018.44
1019.37 1018.92 1018.75 1018.16 1018.01 1017.50 1017.13 1015.99 1015.17 1016.26 1017.13 1017.68 1018.26 1018.58 1018.41 1018.50 1018.64 1019.08 1019.36 1019.49 1019.58 1019.56 1019.49 1019.35 1019.25 1019.13 1019.10 1019.04 1018.85 1018.61 1018.36 1018.03 1017.69 1017.36 1017.04 1016.78 1016.59 1016.49 1016.28 1016.41 1016.58 1016.64 1016.57 1016.62 1016.95 1017.17 1017.24 1017.27 1017.67
1019.17 1018.27 1017.89 1017.62 1018.15 1017.67 1017.25 1016.19 1015.50 1015.85 1016.50 1017.47 1017.53 1017.84 1018.15 1018.58 1018.65 1019.06 1019.47 1019.66 1019.80 1019.82 1019.65 1019.40 1019.18 1019.10 1018.95 1018.85 1018.69 1018.41 1018.15 1017.89 1017.42 1016.91 1016.55 1016.30 1015.91 1015.78 1015.59 1015.46 1015.54 1015.68 1015.99 1015.83 1015.93 1016.02 1016.24 1016.42 1016.73
Wind_Speed
13 7 4 4 5 6 10 5 3 8 8 2 8 1 7 12 9 5 11 8 14 17 14 12 11 11 12 10 10 10 10 11 10 10 10 10 10 11 12 13 12 10 10 11 10 13 13 12 12
10 8 4 4 5 10 7 7 8 9 9 9 8 6 3 7 7 9 11 13 14 12 11 12 9 11 12 11 10 10 10 10 10 9 9 10 10 11 12 12 12 10 10 11 13 13 13 12 11
13 6 5 4 6 10 8 9 11 9 10 9 5 6 3 5 11 10 13 12 13 11 12 12 10 12 12 10 10 9 9 9 10 9 8 9 10 11 11 11 11 11 12 12 13 13 11 12 14
6 5 5 6 11 3 4 8 15 11 6 1 4 9 9 2 9 10 14 14 12 10 14 11 11 11 11 10 9 8 9 8 9 9 9 10 11 11 12 10 10 10 11 12 13 11 13 14 17
3 5 8 8 8 3 3 10 15 14 8 8 1 6 10 9 6 17 13 11 11 12 12 11 10 11 10 10 9 9 9 8 9 9 9 10 10 12 12 12 9 10 11 11 12 12 13 16 17
4 4 8 11 9 4 7 10 11 10 10 6 7 10 7 8 14 13 11 10 8 11 10 10 10 11 10 9 9 8 8 8 8 8 8 8 9 11 12 13 9 10 11 11 11 13 15 16 16
4 6 11 13 11 8 8 9 9 8 10 8 10 6 6 10 13 12 11 10 10 10 9 8 9 10 10 9 9 8 8 9 8 8 8 7 7 8 10 10 11 8 10 10 11 14 15 14 15
4 4 3 5 11 6 11 8 2 8 9 6 2 6 7 9 9 10 10 9 9 8 7 6 6 5 6 7 8 8 8 7 7 7 6 3 3 2 6 11 12 6 9 9 12 14 13 13 15
2 6 9 8 11 8 12 9 3 2 6 4 4 6 7 16 11 11 10 9 8 6 6 5 5 5 5 6 6 7 5 4 3 4 2 4 3 4 3 6 8 8 8 9 12 11 9 12 13
3 8 9 3 5 8 15 9 10 7 8 5 8 4 18 16 14 14 13 11 10 9 7 5 5 5 5 3 4 3 3 4 4 5 5 4 4 4 4 3 4 5 9 8 6 5 3 4 3
3 4 5 3 1 8 13 9 5 5 7 4 8 10 13 15 14 14 13 12 12 10 7 7 5 5 4 3 2 1 2 2 3 4 4 3 3 2 1 0 2 4 6 4 5 5 4 7 6
1 2 4 3 2 8 11 11 7 7 6 7 2 13 13 16 14 14 13 11 10 10 9 8 7 5 4 3 2 3 2 2 2 3 4 3 2 3 3 2 1 2 0 0 2 4 5 7 8
3 1 2 3 5 5 7 6 4 6 3 2 6 10 12 14 14 13 11 8 9 10 10 10 7 6 4 3 2 2 2 1 3 2 3 4 3 3 3 2 2 3 1 1 3 4 5 6 7
4 1 5 3 6 5 7 5 4 4 3 6 8 8 11 14 14 12 9 9 9 8 9 9 10 8 7 5 4 3 3 3 1 1 3 3 4 4 4 3 1 1 2 2 2 4 4 5 6
9 5 6 4 2 4 0 5 4 5 5 7 6 8 8 12 16 14 11 10 10 7 6 7 6 7 9 8 7 5 4 3 3 2 1 2 3 4 5 3 3 4 2 1 2 6 6 5 5
3 4 5 4 1 2 4 8 7 4 6 7 7 8 9 11 13 12 11 9 8 4 6 6 6 6 7 6 5 4 4 4 3 2 2 1 2 4 4 4 2 0 3 3 3 5 5 4 4
4 5 9 6 1 3 4 8 5 1 4 6 6 8 7 9 11 11 8 10 9 6 8 8 9 8 7 4 2 4 3 3 2 2 2 3 2 3 4 4 3 2 3 4 3 5 5 5 4
6 9 9 10 3 2 3 1 5 3 4 5 6 7 7 8 10 9 11 10 10 9 8 8 8 8 8 5 5 4 4 3 3 3 3 3 3 3 4 4 4 3 4 4 4 6 4 4 5
9 8 10 7 4 2 1 3 6 5 4 8 8 8 7 6 7 7 9 10 11 10 10 10 11 10 7 6 5 5 5 5 3 3 5 5 5 5 4 4 5 4 5 5 7 5 7 4 5
6 13 6 6 4 3 3 7 7 9 7 8 8 8 8 7 7 6 8 9 12 12 11 10 10 10 9 6 6 5 2 3 4 4 5 7 6 6 6 6 5 5 5 6 6 8 6 3 7
5 6 8 5 5 2 2 6 8 11 12 12 12 9 8 8 7 6 7 8 8 9 9 9 9 9 9 8 5 4 2 3 4 6 7 8 8 7 7 7 5 6 6 7 6 10 11 7 8
6 6 8 9 6 3 4 5 7 9 12 13 11 10 9 10 8 8 9 9 7 7 7 8 8 9 8 9 8 9 8 8 7 7 6 6 10 9 9 8 7 7 7 9 8 9 10 8 7
7 5 8 4 2 5 4 1 7 3 11 13 14 15 13 11 10 10 10 9 7 7 5 5 6 8 8 8 11 9 11 9 7 5 8 9 9 10 9 9 9 8 8 9 10 9 11 10 8
12 9 7 2 1 2 2 2 5 3 7 11 12 13 13 13 13 13 10 8 8 5 3 3 4 6 8 9 11 13 13 11 9 9 7 7 7 7 10 9 10 9 8 10 9 11 12 11 10
1 3 3 2 2 2 2 2 7 10 13 11 9 9 11 12 12 12 10 8 6 7 6 5 5 6 7 9 11 13 13 12 12 12 10 10 7 7 9 10 9 8 9 10 9 10 10 11 11
3 3 2 1 4 5 2 5 6 9 8 5 4 6 9 10 10 10 8 7 7 7 7 7 7 7 7 9 11 11 12 8 10 11 9 8 8 8 9 9 10 11 10 9 9 8 8 10 11
2 1 3 5 1 1 3 6 4 7 9 4 4 6 7 9 10 11 10 9 9 10 10 10 10 9 9 9 9 11 10 12 11 13 12 10 12 8 9 10 9 10 10 9 8 8 9 9 9
4 3 2 1 3 3 4 4 6 16 16 8 5 3 5 8 10 9 8 8 8 9 9 10 10 11 10 10 9 9 11 11 11 11 13 14 13 14 10 10 11 10 10 9 9 8 8 8 7
2 1 1 2 2 2 1 3 9 17 16 10 4 1 6 9 10 7 6 9 10 11 11 11 11 12 11 10 10 10 10 11 11 11 12 12 12 12 13 11 11 11 11 10 10 10 9 10 10
3 2 4 3 4 0 1 4 5 13 14 6 3 2 7 7 8 7 8 7 7 9 10 11 11 10 9 10 10 10 10 11 11 11 13 13 14 12 13 13 12 11 12 11 12 12 11 12 12
Wind_Direction
319 320 286 232 227 238 214 158 43 136 138 74 100 31 66 28 7 41 129 129 129 111 123 118 108 104 95 83 70 60 53 46 44 41 42 45 37 33 29 28 29 50 46 57 51 55 47 46 40
322 321 236 253 249 201 209 128 176 147 108 131 110 120 99 81 56 125 135 132 126 132 128 116 108 98 87 78 70 66 57 53 51 45 46 41 42 29 26 26 33 48 50 60 62 54 48 45 42
313 259 250 227 222 232 204 173 129 124 136 160 111 19 55 74 137 130 129 135 119 131 109 107 101 96 88 82 78 71 65 60 57 54 54 51 37 29 25 26 32 49 52 65 63 53 48 43 51
331 188 217 245 217 79 32 149 140 140 149 180 123 97 89 159 127 121 134 144 134 123 102 114 107 99 94 88 80 76 71 66 63 62 51 40 38 36 25 25 41 52 59 58 63 56 53 52 51
278 270 226 226 223 80 194 133 155 153 153 152 181 108 109 93 120 126 155 143 135 122 118 115 101 97 92 83 77 78 73 70 60 48 40 31 21 21 27 25 44 60 60 63 65 63 61 59 54
280 281 223 198 182 155 132 153 164 156 146 124 137 123 110 119 141 146 150 134 134 118 116 118 94 84 83 82 80 74 71 65 61 58 51 46 28 12 23 20 28 64 65 68 67 69 67 57 55
268 256 240 210 162 166 161 167 172 158 159 160 130 125 109 159 147 147 149 141 129 125 122 124 128 111 88 78 77 77 75 66 62 55 53 52 41 24 12 14 27 64 75 75 76 75 70 64 56
279 262 245 205 189 156 159 163 147 171 134 80 302 170 162 154 135 149 147 138 122 117 123 132 140 124 109 103 68 74 77 70 63 57 46 37 96 35 18 346 26 53 82 76 86 79 76 73 63
309 249 214 194 198 142 161 159 150 11 128 176 131 46 93 144 160 162 142 146 141 136 140 156 145 127 111 104 109 124 115 119 147 139 87 252 26 25 41 37 14 30 86 93 95 99 104 90 73
267 244 213 40 61 167 173 180 150 170 155 170 159 66 127 147 167 165 173 169 172 164 158 166 169 131 125 113 118 84 87 45 46 36 29 15 22 31 8 20 15 39 84 101 117 128 206 213 61
228 267 99 105 186 168 158 157 158 180 184 177 200 161 162 163 180 178 187 179 183 163 168 183 171 151 143 117 116 85 52 52 55 44 25 21 1 359 20 43 202 161 182 144 171 182 49 38 40
191 271 336 128 122 150 164 135 164 198 58 351 321 153 176 178 187 191 191 189 164 172 176 185 181 160 142 141 174 99 74 34 26 30 22 359 357 352 352 359 330 281 129 294 90 72 85 80 75
32 10 58 106 131 122 128 143 107 156 77 146 129 154 182 187 193 215 190 181 173 181 183 184 178 173 158 174 132 107 114 78 33 11 15 343 351 352 314 358 342 333 44 88 110 128 102 92 81
155 327 127 134 124 116 149 131 193 122 138 144 157 178 186 193 199 217 198 208 188 192 194 188 181 179 171 180 181 170 176 146 171 11 12 349 333 334 317 324 352 321 48 9 159 118 135 100 97
128 120 189 113 62 93 324 156 185 115 162 158 171 179 222 202 201 207 219 221 200 193 194 206 193 189 187 184 183 187 189 191 183 163 164 342 335 335 307 300 299 93 105 294 77 91 71 72 73
206 186 180 101 197 88 250 155 123 161 184 186 186 206 197 216 215 224 231 227 246 188 214 198 199 206 214 209 196 199 187 203 203 206 158 105 320 307 283 279 266 217 130 176 136 129 132 131 130
205 169 179 135 63 132 247 102 124 168 225 234 214 217 221 225 217 209 226 231 254 231 213 203 202 206 209 212 219 220 218 229 248 231 204 168 205 258 277 283 281 255 186 178 171 157 152 148 134
161 162 157 141 123 193 144 197 137 180 235 253 255 241 231 232 245 235 218 233 235 225 223 217 214 205 198 194 201 212 223 226 239 253 235 207 198 245 271 266 260 249 250 191 156 147 129 150 156
144 135 121 98 83 255 182 317 321 303 253 275 270 269 265 264 272 259 245 227 230 233 229 219 214 215 203 209 207 225 230 219 220 239 238 230 205 214 232 252 257 238 240 240 170 125 140 144 135
129 116 100 95 77 291 77 27 57 35 13 345 328 323 323 312 293 263 269 258 245 243 238 242 240 231 219 222 225 248 261 239 230 222 230 236 234 220 227 227 236 246 251 241 156 152 158 131 187
39 146 150 120 125 92 327 89 77 81 64 57 61 54 41 30 6 343 318 295 286 273 263 262 259 255 249 236 251 242 260 262 233 232 232 224 228 227 226 239 233 227 232 237 206 177 179 188 196
114 66 108 127 174 164 344 131 88 111 67 41 34 40 32 30 15 17 16 7 354 339 321 291 272 263 251 246 240 241 241 248 237 233 227 217 221 220 220 224 231 222 222 228 232 179 191 192 194
110 100 91 86 133 178 34 131 136 179 54 57 61 51 44 41 40 42 38 30 28 24 349 310 288 268 255 241 243 248 250 259 260 249 232 233 223 220 218 221 228 226 220 226 226 214 194 206 191
127 104 85 93 244 135 53 312 140 62 102 87 65 55 56 62 63 59 52 38 33 29 9 327 286 265 249 242 243 247 253 258 261 256 243 243 238 225 227 227 231 235 235 228 229 226 226 210 219
110 170 114 140 155 75 45 269 73 112 118 90 74 61 68 66 59 48 39 28 18 17 10 357 325 294 264 245 243 245 246 251 252 254 253 246 238 231 229 221 224 230 238 237 233 235 231 231 219
57 334 325 168 168 128 182 153 132 123 132 102 76 81 75 51 36 35 30 16 6 357 350 350 342 320 299 278 273 270 267 263 259 260 258 263 251 250 237 216 219 225 237 238 236 236 241 237 236
96 44 9 97 37 228 121 106 124 184 177 190 130 107 54 23 19 14 23 22 12 2 355 349 339 332 327 310 298 288 282 273 272 269 269 271 269 261 252 242 225 226 234 235 236 237 237 243 253
2 84 158 313 147 186 148 220 156 188 190 194 147 100 23 14 14 23 24 19 12 2 353 350 347 339 333 323 312 302 296 288 282 278 276 275 271 270 254 252 245 231 228 227 230 236 239 240 241
155 283 7 53 348 169 193 221 154 181 181 187 148 39 355 9 12 29 16 13 21 19 11 1 359 353 350 342 328 315 302 294 287 280 276 272 272 270 267 254 250 243 228 216 218 223 227 225 228
281 233 216 221 188 197 8 260 162 173 179 167 195 212 358 11 24 28 24 34 23 11 2 352 348 342 337 329 322 311 302 298 291 283 279 277 270 266 265 259 248 241 239 228 220 218 220 222 222